SKYSAT-A

Last updated on Tue Oct 15 2024 00:02:24 GMT+0000 (Coordinated Universal Time)

1 39418U 13066C 24288.10164393 .00007095 00000+0 47724-3 0 9999 2 39418 97.4739 344.8397 0022894 257.7539 102.1125 15.06825555596247
UTC large
Height (km)
Speed (km/s)
/
Latitude / Longitude
Inclination (degrees)
Orbital Period (minutes)
Azimuth
Elevation
Range (km)
Doppler Factor

Next 0 passes for location: London (51.5072 / 0.1276)

Sorry there are no passes over London.